Time,TemperatureF,DewpointF,PressureIn,WindDirection,WindDirectionDegrees,WindSpeedMPH,WindSpeedGustMPH,Humidity,HourlyPrecipIn,Conditions,Clouds,dailyrainin,SoftwareType,DateUTC
2013-04-19 00:07:00,30.4,29.9,29.39,North,0,2.2,-999.0,98,-99.99,,,0.00,Acu-Link.com,2013-04-19 05:07:00,
2013-04-19 00:23:00,30.4,29.9,29.40,ENE,67,2.7,-999.0,98,-99.99,,,0.00,Acu-Link.com,2013-04-19 05:23:00,
2013-04-19 00:38:00,30.4,29.9,29.39,NNW,337,0.0,-999.0,98,-99.99,,,0.00,Acu-Link.com,2013-04-19 05:38:00,
2013-04-19 00:53:00,30.4,29.9,29.41,North,0,2.2,-999.0,98,-99.99,,,0.00,Acu-Link.com,2013-04-19 05:53:00,
2013-04-19 01:09:00,30.4,29.7,29.39,West,270,2.2,-999.0,97,-99.99,,,0.00,Acu-Link.com,2013-04-19 06:09:00,
2013-04-19 01:24:00,30.4,29.7,29.39,NNE,22,3.2,-999.0,97,-99.99,,,0.00,Acu-Link.com,2013-04-19 06:24:00,
2013-04-19 01:39:00,30.4,29.7,29.40,NW,315,5.8,-999.0,97,-99.99,,,0.00,Acu-Link.com,2013-04-19 06:39:00,
2013-04-19 01:54:00,30.2,29.5,29.40,NNW,337,1.7,-999.0,97,-99.99,,,0.00,Acu-Link.com,2013-04-19 06:54:00,
2013-04-19 02:09:00,30.2,29.5,29.39,North,0,0.0,-999.0,97,-99.99,,,0.00,Acu-Link.com,2013-04-19 07:09:00,
2013-04-19 02:24:00,30.2,29.5,29.39,NW,315,2.7,-999.0,97,-99.99,,,0.00,Acu-Link.com,2013-04-19 07:24:00,
2013-04-19 02:40:00,30.2,29.5,29.38,NNE,22,3.2,-999.0,97,-99.99,,,0.00,Acu-Link.com,2013-04-19 07:40:00,
2013-04-19 02:55:00,30.2,29.5,29.39,North,0,3.2,-999.0,97,-99.99,,,0.00,Acu-Link.com,2013-04-19 07:55:00,
2013-04-19 03:10:00,30.0,29.3,29.39,NNW,337,0.0,-999.0,97,-99.99,,,0.00,Acu-Link.com,2013-04-19 08:10:00,
2013-04-19 03:26:00,30.0,29.3,29.39,NNE,22,2.7,-999.0,97,-99.99,,,0.00,Acu-Link.com,2013-04-19 08:26:00,
2013-04-19 03:41:00,30.0,29.3,29.40,North,0,0.0,-999.0,97,-99.99,,,0.00,Acu-Link.com,2013-04-19 08:41:00,
2013-04-19 03:56:00,29.8,29.1,29.40,NNE,22,2.2,-999.0,97,-99.99,,,0.00,Acu-Link.com,2013-04-19 08:56:00,
2013-04-19 04:12:00,29.8,29.1,29.40,NNW,337,1.1,-999.0,97,-99.99,,,0.00,Acu-Link.com,2013-04-19 09:12:00,
2013-04-19 04:27:00,29.8,29.1,29.41,ENE,67,3.7,-999.0,97,-99.99,,,0.00,Acu-Link.com,2013-04-19 09:27:00,
2013-04-19 04:42:00,29.8,28.8,29.41,North,0,1.7,-999.0,96,-99.99,,,0.00,Acu-Link.com,2013-04-19 09:42:00,
2013-04-19 04:57:00,29.7,28.4,29.41,North,0,1.7,-999.0,95,-99.99,,,0.00,Acu-Link.com,2013-04-19 09:57:00,
2013-04-19 05:12:00,29.5,28.2,29.43,North,0,2.2,-999.0,95,-99.99,,,0.00,Acu-Link.com,2013-04-19 10:12:00,
2013-04-19 05:28:00,29.5,28.2,29.42,NNW,337,4.2,-999.0,95,-99.99,,,0.00,Acu-Link.com,2013-04-19 10:28:00,
2013-04-19 05:43:00,29.3,27.8,29.43,NNW,337,2.2,-999.0,94,-99.99,,,0.00,Acu-Link.com,2013-04-19 10:43:00,
2013-04-19 05:58:00,29.3,27.5,29.42,West,270,3.7,-999.0,93,-99.99,,,0.00,Acu-Link.com,2013-04-19 10:58:00,
2013-04-19 06:14:00,29.3,27.3,29.43,North,0,2.2,-999.0,92,-99.99,,,0.00,Acu-Link.com,2013-04-19 11:14:00,
2013-04-19 06:29:00,29.3,27.5,29.45,NNE,22,0.0,-999.0,93,-99.99,,,0.00,Acu-Link.com,2013-04-19 11:29:00,
2013-04-19 06:44:00,29.1,26.8,29.47,North,0,1.7,-999.0,91,-99.99,,,0.00,Acu-Link.com,2013-04-19 11:44:00,
2013-04-19 07:00:00,29.1,26.8,29.46,North,0,2.7,-999.0,91,-99.99,,,0.00,Acu-Link.com,2013-04-19 12:00:00,
2013-04-19 07:15:00,29.3,26.5,29.47,North,0,1.7,-999.0,89,-99.99,,,0.00,Acu-Link.com,2013-04-19 12:15:00,
2013-04-19 07:30:00,29.8,27.0,29.46,NNW,337,0.0,-999.0,89,-99.99,,,0.00,Acu-Link.com,2013-04-19 12:30:00,
2013-04-19 07:45:00,30.6,27.2,29.47,NNE,22,0.0,-999.0,87,-99.99,,,0.00,Acu-Link.com,2013-04-19 12:45:00,
2013-04-19 08:00:00,30.7,27.8,29.47,SSW,202,3.2,-999.0,89,-99.99,,,0.00,Acu-Link.com,2013-04-19 13:00:00,
2013-04-19 08:16:00,31.5,28.1,29.48,NNW,337,2.2,-999.0,87,-99.99,,,0.00,Acu-Link.com,2013-04-19 13:16:00,
2013-04-19 08:31:00,31.5,27.8,29.49,North,0,4.7,-999.0,86,-99.99,,,0.00,Acu-Link.com,2013-04-19 13:31:00,
2013-04-19 08:46:00,32.0,27.4,29.50,North,0,0.0,-999.0,83,-99.99,,,0.00,Acu-Link.com,2013-04-19 13:46:00,
2013-04-19 09:02:00,32.4,27.8,29.50,North,0,4.7,-999.0,83,-99.99,,,0.00,Acu-Link.com,2013-04-19 14:02:00,
2013-04-19 09:17:00,32.2,27.6,29.49,WNW,292,4.7,-999.0,83,-99.99,,,0.00,Acu-Link.com,2013-04-19 14:17:00,
2013-04-19 09:32:00,32.5,27.0,29.52,NE,45,7.3,-999.0,80,-99.99,,,0.00,Acu-Link.com,2013-04-19 14:32:00,
2013-04-19 09:47:00,33.6,27.2,29.51,North,0,5.3,-999.0,77,-99.99,,,0.00,Acu-Link.com,2013-04-19 14:47:00,
2013-04-19 10:03:00,32.5,27.3,29.53,ENE,67,2.2,-999.0,81,-99.99,,,0.00,Acu-Link.com,2013-04-19 15:03:00,
2013-04-19 10:18:00,35.4,28.3,29.53,SSE,157,3.7,-999.0,75,-99.99,,,0.00,Acu-Link.com,2013-04-19 15:18:00,
2013-04-19 10:33:00,35.6,28.1,29.55,ESE,112,1.7,-999.0,74,-99.99,,,0.00,Acu-Link.com,2013-04-19 15:33:00,
2013-04-19 10:48:00,34.0,25.6,29.54,NNW,337,7.8,-999.0,71,-99.99,,,0.00,Acu-Link.com,2013-04-19 15:48:00,
2013-04-19 11:04:00,32.7,25.3,29.55,NNW,337,7.8,-999.0,74,-99.99,,,0.01,Acu-Link.com,2013-04-19 16:04:00,
2013-04-19 11:19:00,34.7,25.6,29.57,North,0,10.4,-999.0,69,-99.99,,,0.02,Acu-Link.com,2013-04-19 16:19:00,
2013-04-19 11:34:00,35.4,25.2,29.56,NNW,337,6.3,-999.0,66,-99.99,,,0.03,Acu-Link.com,2013-04-19 16:34:00,
2013-04-19 11:50:00,35.4,25.2,29.56,North,0,8.9,-999.0,66,-99.99,,,0.05,Acu-Link.com,2013-04-19 16:50:00,
2013-04-19 12:05:00,36.0,25.8,29.56,NNW,337,4.2,-999.0,66,-99.99,,,0.06,Acu-Link.com,2013-04-19 17:05:00,
2013-04-19 12:20:00,37.6,28.0,29.57,NNW,337,3.2,-999.0,68,-99.99,,,0.08,Acu-Link.com,2013-04-19 17:20:00,
2013-04-19 12:36:00,34.2,27.1,29.59,West,270,5.3,-999.0,75,-99.99,,,0.10,Acu-Link.com,2013-04-19 17:36:00,
2013-04-19 12:51:00,39.6,27.7,29.58,North,0,4.7,-999.0,62,-99.99,,,0.12,Acu-Link.com,2013-04-19 17:51:00,
2013-04-19 13:06:00,35.8,27.0,29.59,NW,315,5.3,-999.0,70,-99.99,,,0.14,Acu-Link.com,2013-04-19 18:06:00,
2013-04-19 13:21:00,39.9,28.3,29.61,North,0,2.7,-999.0,63,-99.99,,,0.15,Acu-Link.com,2013-04-19 18:21:00,
2013-04-19 13:37:00,37.4,27.1,29.62,East,90,4.2,-999.0,66,-99.99,,,0.19,Acu-Link.com,2013-04-19 18:37:00,
2013-04-19 13:52:00,39.7,27.0,29.61,NNE,22,4.7,-999.0,60,-99.99,,,0.21,Acu-Link.com,2013-04-19 18:52:00,
2013-04-19 14:07:00,38.8,28.1,29.62,North,0,6.3,-999.0,65,-99.99,,,0.24,Acu-Link.com,2013-04-19 19:07:00,
2013-04-19 14:22:00,40.6,27.8,29.62,NNW,337,0.0,-999.0,60,-99.99,,,0.26,Acu-Link.com,2013-04-19 19:22:00,
2013-04-19 14:37:00,38.7,27.2,29.64,NE,45,7.3,-999.0,63,-99.99,,,0.32,Acu-Link.com,2013-04-19 19:37:00,
2013-04-19 14:53:00,38.8,25.7,29.64,North,0,2.2,-999.0,59,-99.99,,,0.35,Acu-Link.com,2013-04-19 19:53:00,
2013-04-19 15:08:00,39.9,27.6,29.64,North,0,4.7,-999.0,61,-99.99,,,0.36,Acu-Link.com,2013-04-19 20:08:00,
2013-04-19 15:23:00,38.3,26.0,29.65,North,0,6.8,-999.0,61,-99.99,,,0.38,Acu-Link.com,2013-04-19 20:23:00,
2013-04-19 15:38:00,42.4,26.5,29.66,NNW,337,6.8,-999.0,53,-99.99,,,0.40,Acu-Link.com,2013-04-19 20:38:00,
2013-04-19 15:54:00,37.9,25.3,29.67,NNW,337,6.8,-999.0,60,-99.99,,,0.41,Acu-Link.com,2013-04-19 20:54:00,
2013-04-19 16:09:00,40.1,26.9,29.68,North,0,3.2,-999.0,59,-99.99,,,0.42,Acu-Link.com,2013-04-19 21:09:00,
2013-04-19 16:24:00,37.8,26.0,29.69,WNW,292,9.4,-999.0,62,-99.99,,,0.42,Acu-Link.com,2013-04-19 21:24:00,
2013-04-19 16:39:00,38.7,26.0,29.70,NNE,22,0.0,-999.0,60,-99.99,,,0.43,Acu-Link.com,2013-04-19 21:39:00,
2013-04-19 16:54:00,39.0,26.7,29.71,North,0,1.1,-999.0,61,-99.99,,,0.44,Acu-Link.com,2013-04-19 21:54:00,
2013-04-19 17:09:00,38.8,26.1,29.73,North,0,4.2,-999.0,60,-99.99,,,0.44,Acu-Link.com,2013-04-19 22:09:00,
2013-04-19 17:24:00,42.4,27.4,29.71,North,0,0.0,-999.0,55,-99.99,,,0.45,Acu-Link.com,2013-04-19 22:24:00,
2013-04-19 17:39:00,39.0,25.5,29.72,NNW,337,6.3,-999.0,58,-99.99,,,0.45,Acu-Link.com,2013-04-19 22:39:00,
2013-04-19 17:55:00,41.2,26.7,29.73,NNW,337,0.0,-999.0,56,-99.99,,,0.45,Acu-Link.com,2013-04-19 22:55:00,
2013-04-19 18:10:00,41.2,26.7,29.73,NNE,22,0.0,-999.0,56,-99.99,,,0.45,Acu-Link.com,2013-04-19 23:10:00,
2013-04-19 18:25:00,39.6,25.2,29.74,NNW,337,2.7,-999.0,56,-99.99,,,0.45,Acu-Link.com,2013-04-19 23:25:00,
2013-04-19 18:40:00,39.4,24.6,29.75,NNW,337,2.7,-999.0,55,-99.99,,,0.45,Acu-Link.com,2013-04-19 23:40:00,
2013-04-19 18:56:00,39.6,24.8,29.75,WSW,247,3.2,-999.0,55,-99.99,,,0.45,Acu-Link.com,2013-04-19 23:56:00,
2013-04-19 19:11:00,38.3,22.7,29.76,North,0,7.3,-999.0,53,-99.99,,,0.45,Acu-Link.com,2013-04-20 00:11:00,
2013-04-19 19:26:00,37.2,21.7,29.77,NNW,337,1.1,-999.0,53,-99.99,,,0.45,Acu-Link.com,2013-04-20 00:26:00,
2013-04-19 19:42:00,35.8,20.8,29.77,NNW,337,2.2,-999.0,54,-99.99,,,0.45,Acu-Link.com,2013-04-20 00:42:00,
2013-04-19 19:57:00,34.9,20.4,29.77,NNW,337,2.7,-999.0,55,-99.99,,,0.45,Acu-Link.com,2013-04-20 00:57:00,
2013-04-19 20:12:00,33.6,20.0,29.79,North,0,0.0,-999.0,57,-99.99,,,0.45,Acu-Link.com,2013-04-20 01:12:00,
2013-04-19 20:27:00,32.4,20.1,29.79,NNW,337,0.0,-999.0,60,-99.99,,,0.45,Acu-Link.com,2013-04-20 01:27:00,
2013-04-19 20:42:00,31.1,19.2,29.80,NNW,337,0.0,-999.0,61,-99.99,,,0.45,Acu-Link.com,2013-04-20 01:42:00,
2013-04-19 20:58:00,29.8,18.8,29.82,NNW,337,0.0,-999.0,63,-99.99,,,0.45,Acu-Link.com,2013-04-20 01:58:00,
2013-04-19 21:13:00,28.2,18.0,29.82,NNW,337,0.0,-999.0,65,-99.99,,,0.45,Acu-Link.com,2013-04-20 02:13:00,
2013-04-19 21:28:00,27.7,17.8,29.84,NNW,337,0.0,-999.0,66,-99.99,,,0.45,Acu-Link.com,2013-04-20 02:28:00,
2013-04-19 21:43:00,27.1,17.3,29.83,NNW,337,0.0,-999.0,66,-99.99,,,0.45,Acu-Link.com,2013-04-20 02:43:00,
2013-04-19 21:59:00,26.6,16.8,29.85,NNW,337,0.0,-999.0,66,-99.99,,,0.45,Acu-Link.com,2013-04-20 02:59:00,
2013-04-19 22:14:00,26.4,16.3,29.85,NNW,337,0.0,-999.0,65,-99.99,,,0.45,Acu-Link.com,2013-04-20 03:14:00,
2013-04-19 22:29:00,26.4,15.9,29.85,NNW,337,0.0,-999.0,64,-99.99,,,0.45,Acu-Link.com,2013-04-20 03:29:00,
2013-04-19 22:45:00,27.1,15.8,29.85,NNW,337,1.1,-999.0,62,-99.99,,,0.45,Acu-Link.com,2013-04-20 03:45:00,
2013-04-19 23:00:00,27.1,15.1,29.87,NNW,337,0.0,-999.0,60,-99.99,,,0.45,Acu-Link.com,2013-04-20 04:00:00,
2013-04-19 23:15:00,26.6,15.0,29.86,NNW,337,0.0,-999.0,61,-99.99,,,0.45,Acu-Link.com,2013-04-20 04:15:00,
2013-04-19 23:30:00,25.7,14.1,29.87,NNW,337,0.0,-999.0,61,-99.99,,,0.45,Acu-Link.com,2013-04-20 04:30:00,
2013-04-19 23:46:00,25.3,13.8,29.88,NNW,337,0.0,-999.0,61,-99.99,,,0.45,Acu-Link.com,2013-04-20 04:46:00,